FENGYUN 1C DEB, 30059

Orbit data source: Space-Track

FENGYUN 1C DEB, 30059 is space debris in SSO originally from a launch on Mon, 10 May 1999 UTC launched from the Taiyaun Space Center, China (TSC). Fengyun 1C debris stems from the Chinese weather satellite Fengyun-1C, which was intentionally destroyed by a Chinese anti-satellite missile in 2007. This event dramatically increased the amount of space debris, with thousands of trackable fragments posing hazards to satellites and human spaceflight. The Fengyun 1C debris cloud has become a focal point in discussions about space sustainability and the need for international regulations to prevent the creation of new debris.

Loading next visibility...
Identifier
30059, 1999-025PL
Orbit
SSO
Country
Flag of CNCN / PRC
Related business
Manufacturer
Unknown
Mission
Spacecraft
Bus & Motor
Unknown
Mass
Unknown
Launch date (UTC)
1999-05-10 (27 years ago)
Launch vehicle
Unknown
Launch site
Taiyaun Space Center, China (TSC)
Object type
Payload
Rocket body
Debris
Shape & HBR
Unknown shape, 0.1 m
Radar Cross Section
Small (<0.1 m²)

Expand to show TLE details & history
Last TLE update: 23 hours ago

TLE from 23 hours ago
0 FENGYUN 1C DEB
1 30059U 99025PL  26072.46131493  .00000325  00000-0  43729-3 0  9998
2 30059  98.8319  61.9921 0328157  72.4341  89.8292 13.45544289940176
Epoch: 2026-03-13T11:04Z
TLE epoch observation values (Epoch: 2026-03-13T11:04:17.609Z)
Latitude
13.77886°
Longitude
-93.00526°
Altitude
1,098.083 km
Speed
7.301 km/s
True Right ascension
16h 16m 39s
True Declination
13° 42' 11"
Sunlit
Object was in daylight at epoch
Visualization orbit readout
Latitude
Unknown
Longitude
Unknown
Altitude
Unknown
Speed
Unknown
Apparent Right ascension
Unknown
Apparent Declination
Unknown
Sunlit
N/A
Visualization observer readout
Local Sidereal Time
14:46:18
Azimuth
Unknown
Elevation
Unknown
Doppler factor
Unknown
Orbital elements
Apogee altitude
1,330.897 km
Perigee altitude
841.018 km
Semi-major axis
7,464.095 km
Eccentricity
0.03282
Inclination
98.8319°
RAAN
61.9921°
Arg. of periapsis
72.4341°
True anomaly
93.58735°
Mean anomaly
89.8292°
Eccentric anomaly
91.70857°
Mean motion
3.36572 °/min
Orbital period
106.96 mins
BSTAR
0.00043729
Loading maneuver chart data...
Computing Atmospheric mass density...

Documentation

Showing up to 5 results
|